Location: *
(49.7115°N, 15.0136°E)
Time: 06:14:54
(UTC+00:00)

Cosmos 220 Rocket - Pass Details

Date: 27 February 2020
Orbit: 576 x 616 km, 74.0° (Epoch: 28 March)

Event Time Altitude Azimuth Distance (km) Brightness Sun altitude
Rises 18:32:14 0° 206° (SSW) 2,826 7.7 -19.2°
Reaches altitude 10° 18:34:28 10° 208° (SSW) 1,922 6.8 -19.5°
Maximum altitude 18:38:44 75° 294° (WNW) 614 4.1 -20.2°
Drops below altitude 10° 18:43:01 10° 21° (NNE) 1,914 6.5 -20.9°
Enters shadow 18:44:54 - 23° (NNE) 2,675 7.2 -21.2°
